User: anonymous   Login
Location: Unspecified
(0.0000°N, 0.0000°E)
Time: 19:07:17
(UTC+00:00)
Language:

STARLINK-34941 - Orbit

View from above orbital plane
View from above orbital plane
View from above satellite
View from above satellite

Ground track
Ground track

The orbit is defined by the following mean orbital elements,

1 65210U          26145.28507867 +.00000000 +00000-0 +52849-3 0 00009
2 65210  53.1598 156.5176 0000955  99.2488 260.8623 15.34410588    03
Epoch (UTC): 25 May 2026 06:50:30
Eccentricity: 0.0000955
inclination: 53.1598°
perigee height: 462 km
apogee height: 463 km
right ascension of ascending node: 156.5176°
argument of perigee: 99.2488°
revolutions per day: 15.34410588
mean anomaly at epoch: 260.8623°

The dashed part of the orbit path shows where the satellite is in the earth's shadow,  

DLR